Terminal Aerodrome Forecast
Issued by NWS Austin/San Antonio, TX

Home | Current Version | Previous Version | Text Only | Print | Product List | Glossary On
Versions: 1 2 3 4 5 6 7 8 9 10 11 12 13 14 15 16 17 18 19 20 21 22 23 24 25 26
000
FTUS44 KEWX 270418 AAB
TAFSAT
TAF AMD
KSAT 270418Z 2704/2806 15017G27KT P6SM OVC015
     FM270700 16014G24KT P6SM VCTS OVC015CB
     FM271000 15012KT P6SM OVC007
     FM271500 17013KT P6SM OVC015
     FM272000 15014KT P6SM BKN025 BKN040 PROB30 2722/2802 VRB25G35KT
      3SM TSRA OVC020CB=

USA.gov is the U.S. government's official web portal to all federal, state and local government web resources and services.